Time,TemperatureF,DewpointF,PressureIn,WindDirection,WindDirectionDegrees,WindSpeedMPH,WindSpeedGustMPH,Humidity,HourlyPrecipIn,Conditions,Clouds,dailyrainin,SoftwareType,DateUTC
2013-03-30 00:01:00,52.3,35.2,30.16,WNW,290,5.0,15.0,52,0.00,,,0.00,Wunderground v.1.15,2013-03-30 07:01:00,
2013-03-30 00:06:00,51.7,35.1,30.16,WNW,290,5.0,6.0,53,0.00,,,0.00,Wunderground v.1.15,2013-03-30 07:06:00,
2013-03-30 00:11:00,51.8,35.2,30.16,WNW,300,8.0,10.0,53,0.00,,,0.00,Wunderground v.1.15,2013-03-30 07:11:00,
2013-03-30 00:16:00,51.5,34.9,30.16,WNW,300,3.0,4.0,53,0.00,,,0.00,Wunderground v.1.15,2013-03-30 07:16:00,
2013-03-30 00:21:00,51.0,34.9,30.16,WNW,300,3.0,4.0,54,0.00,,,0.00,Wunderground v.1.15,2013-03-30 07:21:00,
2013-03-30 00:26:00,51.0,34.9,30.17,WNW,300,0.0,2.0,54,0.00,,,0.00,Wunderground v.1.15,2013-03-30 07:26:00,
2013-03-30 00:31:00,50.8,34.7,30.17,WNW,300,0.0,3.0,54,0.00,,,0.00,Wunderground v.1.15,2013-03-30 07:31:00,
2013-03-30 00:36:00,50.3,34.7,30.17,WNW,300,0.0,4.0,55,0.00,,,0.00,Wunderground v.1.15,2013-03-30 07:36:00,
2013-03-30 00:41:00,50.0,34.5,30.17,WNW,300,0.0,4.0,55,0.00,,,0.00,Wunderground v.1.15,2013-03-30 07:41:00,
2013-03-30 00:46:00,50.1,34.5,30.17,WNW,300,0.0,0.0,55,0.00,,,0.00,Wunderground v.1.15,2013-03-30 07:46:00,
2013-03-30 00:51:00,50.1,34.5,30.17,WNW,300,3.0,4.0,55,0.00,,,0.00,Wunderground v.1.15,2013-03-30 07:51:00,
2013-03-30 00:56:00,49.9,34.4,30.17,WNW,300,0.0,1.0,55,0.00,,,0.00,Wunderground v.1.15,2013-03-30 07:56:00,
2013-03-30 01:01:00,50.3,34.3,30.17,WNW,300,2.0,4.0,54,0.00,,,0.00,Wunderground v.1.15,2013-03-30 08:01:00,
2013-03-30 01:06:00,50.7,34.6,30.17,WNW,303,3.0,6.0,54,0.00,,,0.00,Wunderground v.1.15,2013-03-30 08:06:00,
2013-03-30 01:11:00,50.6,34.6,30.17,NW,304,1.0,6.0,54,0.00,,,0.00,Wunderground v.1.15,2013-03-30 08:11:00,
2013-03-30 01:16:00,50.2,34.2,30.17,WNW,296,5.0,5.0,54,0.00,,,0.00,Wunderground v.1.15,2013-03-30 08:16:00,
2013-03-30 01:21:00,47.9,34.3,30.18,West,275,4.0,7.0,59,0.00,,,0.00,Wunderground v.1.15,2013-03-30 08:21:00,
2013-03-30 01:26:00,46.8,34.0,30.17,West,269,2.0,6.0,61,0.00,,,0.00,Wunderground v.1.15,2013-03-30 08:26:00,
2013-03-30 01:31:00,46.2,34.3,30.18,West,265,2.0,6.0,63,0.00,,,0.00,Wunderground v.1.15,2013-03-30 08:31:00,
2013-03-30 01:36:00,45.2,34.5,30.18,West,265,3.0,5.0,66,0.00,,,0.00,Wunderground v.1.15,2013-03-30 08:36:00,
2013-03-30 01:41:00,45.2,34.9,30.18,West,265,3.0,5.0,67,0.00,,,0.00,Wunderground v.1.15,2013-03-30 08:41:00,
2013-03-30 01:46:00,44.4,34.5,30.18,West,265,2.0,3.0,68,0.00,,,0.00,Wunderground v.1.15,2013-03-30 08:46:00,
2013-03-30 01:51:00,43.8,34.6,30.18,West,265,3.0,4.0,70,0.00,,,0.00,Wunderground v.1.15,2013-03-30 08:51:00,
2013-03-30 01:56:00,43.7,34.9,30.18,West,265,3.0,4.0,71,0.00,,,0.00,Wunderground v.1.15,2013-03-30 08:56:00,
2013-03-30 02:01:00,43.9,35.1,30.18,West,265,3.0,4.0,71,0.00,,,0.00,Wunderground v.1.15,2013-03-30 09:01:00,
2013-03-30 02:06:00,44.2,35.0,30.18,West,265,2.0,4.0,70,0.00,,,0.00,Wunderground v.1.15,2013-03-30 09:06:00,
2013-03-30 02:07:00,44.2,35.0,30.18,West,265,2.0,4.0,70,0.00,,,0.00,Wunderground v.1.15,2013-03-30 09:07:00,
2013-03-30 02:12:00,44.4,34.9,30.19,West,265,3.0,4.0,69,0.00,,,0.00,Wunderground v.1.15,2013-03-30 09:12:00,
2013-03-30 02:17:00,44.5,35.0,30.19,West,265,3.0,4.0,69,0.00,,,0.00,Wunderground v.1.15,2013-03-30 09:17:00,
2013-03-30 02:22:00,44.5,35.0,30.19,West,265,2.0,4.0,69,0.00,,,0.00,Wunderground v.1.15,2013-03-30 09:22:00,
2013-03-30 02:26:00,44.6,35.1,30.19,West,265,2.0,3.0,69,0.00,,,0.00,Wunderground v.1.15,2013-03-30 09:26:00,
2013-03-30 02:31:00,44.3,35.1,30.19,West,265,2.0,3.0,70,0.00,,,0.00,Wunderground v.1.15,2013-03-30 09:31:00,
2013-03-30 02:36:00,44.2,35.4,30.19,West,265,3.0,4.0,71,0.00,,,0.00,Wunderground v.1.15,2013-03-30 09:36:00,
2013-03-30 02:41:00,44.7,35.9,30.19,West,265,2.0,4.0,71,0.00,,,0.00,Wunderground v.1.15,2013-03-30 09:41:00,
2013-03-30 02:46:00,45.0,35.8,30.19,West,265,1.0,3.0,70,0.00,,,0.00,Wunderground v.1.15,2013-03-30 09:46:00,
2013-03-30 02:51:00,45.3,36.1,30.19,West,265,1.0,3.0,70,0.00,,,0.00,Wunderground v.1.15,2013-03-30 09:51:00,
2013-03-30 02:56:00,45.5,35.9,30.19,West,265,0.0,1.0,69,0.00,,,0.00,Wunderground v.1.15,2013-03-30 09:56:00,
2013-03-30 03:01:00,45.8,35.8,30.19,West,265,0.0,1.0,68,0.00,,,0.00,Wunderground v.1.15,2013-03-30 10:01:00,
2013-03-30 03:06:00,45.5,35.2,30.19,West,265,1.0,2.0,67,0.00,,,0.00,Wunderground v.1.15,2013-03-30 10:06:00,
2013-03-30 03:11:00,45.3,35.4,30.20,West,265,1.0,2.0,68,0.00,,,0.00,Wunderground v.1.15,2013-03-30 10:11:00,
2013-03-30 03:16:00,45.4,35.5,30.20,West,265,0.0,1.0,68,0.00,,,0.00,Wunderground v.1.15,2013-03-30 10:16:00,
2013-03-30 03:21:00,45.3,36.8,30.20,West,265,0.0,1.0,72,0.00,,,0.00,Wunderground v.1.15,2013-03-30 10:21:00,
2013-03-30 03:26:00,45.3,35.7,30.20,West,265,0.0,0.0,69,0.00,,,0.00,Wunderground v.1.15,2013-03-30 10:26:00,
2013-03-30 03:31:00,45.4,36.5,30.20,West,265,0.0,0.0,71,0.00,,,0.00,Wunderground v.1.15,2013-03-30 10:31:00,
2013-03-30 03:36:00,45.4,36.5,30.20,West,265,0.0,0.0,71,0.00,,,0.00,Wunderground v.1.15,2013-03-30 10:36:00,
2013-03-30 03:41:00,45.3,36.4,30.20,West,265,0.0,0.0,71,0.00,,,0.00,Wunderground v.1.15,2013-03-30 10:41:00,
2013-03-30 03:46:00,45.1,36.3,30.20,West,265,0.0,0.0,71,0.00,,,0.00,Wunderground v.1.15,2013-03-30 10:46:00,
2013-03-30 03:51:00,44.7,35.1,30.20,West,265,0.0,0.0,69,0.00,,,0.00,Wunderground v.1.15,2013-03-30 10:51:00,
2013-03-30 03:56:00,44.0,35.2,30.20,West,265,0.0,0.0,71,0.00,,,0.00,Wunderground v.1.15,2013-03-30 10:56:00,
2013-03-30 04:01:00,43.6,35.2,30.20,West,265,0.0,0.0,72,0.00,,,0.00,Wunderground v.1.15,2013-03-30 11:01:00,
2013-03-30 04:06:00,43.5,35.8,30.20,West,265,0.0,0.0,74,0.00,,,0.00,Wunderground v.1.15,2013-03-30 11:06:00,
2013-03-30 04:11:00,43.4,35.7,30.20,West,265,0.0,0.0,74,0.00,,,0.00,Wunderground v.1.15,2013-03-30 11:11:00,
2013-03-30 04:16:00,43.4,35.7,30.20,West,265,0.0,0.0,74,0.00,,,0.00,Wunderground v.1.15,2013-03-30 11:16:00,
2013-03-30 04:21:00,43.4,36.0,30.20,West,265,0.0,0.0,75,0.00,,,0.00,Wunderground v.1.15,2013-03-30 11:21:00,
2013-03-30 04:26:00,43.4,35.7,30.20,West,265,0.0,0.0,74,0.00,,,0.00,Wunderground v.1.15,2013-03-30 11:26:00,
2013-03-30 04:31:00,43.3,35.9,30.20,West,265,1.0,1.0,75,0.00,,,0.00,Wunderground v.1.15,2013-03-30 11:31:00,
2013-03-30 04:36:00,43.0,35.3,30.21,West,265,1.0,2.0,74,0.00,,,0.00,Wunderground v.1.15,2013-03-30 11:36:00,
2013-03-30 04:41:00,42.8,35.8,30.21,West,265,0.0,2.0,76,0.00,,,0.00,Wunderground v.1.15,2013-03-30 11:41:00,
2013-03-30 04:46:00,42.7,35.7,30.21,West,265,0.0,0.0,76,0.00,,,0.00,Wunderground v.1.15,2013-03-30 11:46:00,
2013-03-30 04:51:00,42.5,35.5,30.21,West,265,0.0,2.0,76,0.00,,,0.00,Wunderground v.1.15,2013-03-30 11:51:00,
2013-03-30 04:56:00,42.1,35.1,30.21,West,265,0.0,2.0,76,0.00,,,0.00,Wunderground v.1.15,2013-03-30 11:56:00,
2013-03-30 05:01:00,41.7,35.0,30.21,West,265,2.0,3.0,77,0.00,,,0.00,Wunderground v.1.15,2013-03-30 12:01:00,
2013-03-30 05:06:00,41.8,35.4,30.21,West,265,2.0,3.0,78,0.00,,,0.00,Wunderground v.1.15,2013-03-30 12:06:00,
2013-03-30 05:11:00,41.8,35.4,30.21,West,265,3.0,4.0,78,0.00,,,0.00,Wunderground v.1.15,2013-03-30 12:11:00,
2013-03-30 05:16:00,41.8,35.4,30.21,West,265,3.0,3.0,78,0.00,,,0.00,Wunderground v.1.15,2013-03-30 12:16:00,
2013-03-30 05:21:00,41.9,34.6,30.21,West,281,3.0,7.0,75,0.00,,,0.00,Wunderground v.1.15,2013-03-30 12:21:00,
2013-03-30 05:26:00,42.4,35.7,30.21,West,281,2.0,3.0,77,0.00,,,0.00,Wunderground v.1.15,2013-03-30 12:26:00,
2013-03-30 05:31:00,42.0,36.0,30.21,WNW,287,4.0,6.0,79,0.00,,,0.00,Wunderground v.1.15,2013-03-30 12:31:00,
2013-03-30 05:36:00,43.1,36.4,30.21,WNW,288,3.0,5.0,77,0.00,,,0.00,Wunderground v.1.15,2013-03-30 12:36:00,
2013-03-30 05:41:00,43.2,35.5,30.21,WNW,288,0.0,5.0,74,0.00,,,0.00,Wunderground v.1.15,2013-03-30 12:41:00,
2013-03-30 05:46:00,43.0,35.3,30.21,WNW,288,0.0,2.0,74,0.00,,,0.00,Wunderground v.1.15,2013-03-30 12:46:00,
2013-03-30 05:51:00,42.8,35.8,30.21,WNW,288,0.0,2.0,76,0.00,,,0.00,Wunderground v.1.15,2013-03-30 12:51:00,
2013-03-30 05:56:00,43.1,35.7,30.21,WNW,288,0.0,0.0,75,0.00,,,0.00,Wunderground v.1.15,2013-03-30 12:56:00,
2013-03-30 06:01:00,42.7,34.6,30.22,WNW,288,0.0,0.0,73,0.00,,,0.00,Wunderground v.1.15,2013-03-30 13:01:00,
2013-03-30 06:06:00,42.2,35.2,30.22,WNW,288,1.0,1.0,76,0.00,,,0.00,Wunderground v.1.15,2013-03-30 13:06:00,
2013-03-30 06:11:00,42.1,35.4,30.22,WNW,288,1.0,2.0,77,0.00,,,0.00,Wunderground v.1.15,2013-03-30 13:11:00,
2013-03-30 06:16:00,41.8,35.1,30.22,WNW,288,3.0,4.0,77,0.00,,,0.00,Wunderground v.1.15,2013-03-30 13:16:00,
2013-03-30 06:21:00,42.0,35.6,30.22,WNW,288,3.0,4.0,78,0.00,,,0.00,Wunderground v.1.15,2013-03-30 13:21:00,
2013-03-30 06:26:00,41.8,34.8,30.23,WNW,288,1.0,3.0,76,0.00,,,0.00,Wunderground v.1.15,2013-03-30 13:26:00,
2013-03-30 06:31:00,41.0,34.3,30.23,WNW,288,2.0,3.0,77,0.00,,,0.00,Wunderground v.1.15,2013-03-30 13:31:00,
2013-03-30 06:36:00,40.2,33.6,30.23,WNW,288,1.0,3.0,77,0.00,,,0.00,Wunderground v.1.15,2013-03-30 13:36:00,
2013-03-30 06:41:00,39.9,34.2,30.23,WNW,288,2.0,3.0,80,0.00,,,0.00,Wunderground v.1.15,2013-03-30 13:41:00,
2013-03-30 06:46:00,39.2,33.5,30.23,WNW,288,3.0,3.0,80,0.00,,,0.00,Wunderground v.1.15,2013-03-30 13:46:00,
2013-03-30 06:51:00,39.3,34.3,30.24,WNW,287,2.0,3.0,82,0.00,,,0.00,Wunderground v.1.15,2013-03-30 13:51:00,
2013-03-30 06:56:00,39.3,34.3,30.24,WNW,287,2.0,3.0,82,0.00,,,0.00,Wunderground v.1.15,2013-03-30 13:56:00,
2013-03-30 07:01:00,39.2,34.2,30.24,WNW,283,3.0,3.0,82,0.00,,,0.00,Wunderground v.1.15,2013-03-30 14:01:00,
2013-03-30 07:06:00,39.3,34.0,30.24,WNW,283,2.0,6.0,81,0.00,,,0.00,Wunderground v.1.15,2013-03-30 14:06:00,
2013-03-30 07:11:00,39.5,34.5,30.24,WNW,283,2.0,6.0,82,0.00,,,0.00,Wunderground v.1.15,2013-03-30 14:11:00,
2013-03-30 07:16:00,39.7,34.3,30.24,WNW,283,3.0,3.0,81,0.00,,,0.00,Wunderground v.1.15,2013-03-30 14:16:00,
2013-03-30 07:21:00,39.7,34.7,30.24,West,281,3.0,4.0,82,0.00,,,0.00,Wunderground v.1.15,2013-03-30 14:21:00,
2013-03-30 07:26:00,40.0,34.6,30.24,West,281,2.0,3.0,81,0.00,,,0.00,Wunderground v.1.15,2013-03-30 14:26:00,
2013-03-30 07:31:00,40.0,34.6,30.24,West,280,3.0,3.0,81,0.00,,,0.00,Wunderground v.1.15,2013-03-30 14:31:00,
2013-03-30 07:36:00,39.9,34.5,30.24,West,281,2.0,3.0,81,0.00,,,0.00,Wunderground v.1.15,2013-03-30 14:36:00,
2013-03-30 07:41:00,40.4,35.0,30.24,West,281,1.0,3.0,81,0.00,,,0.00,Wunderground v.1.15,2013-03-30 14:41:00,
2013-03-30 07:46:00,40.8,35.4,30.25,West,279,2.0,3.0,81,0.00,,,0.00,Wunderground v.1.15,2013-03-30 14:46:00,
2013-03-30 07:51:00,41.1,35.7,30.24,West,279,2.0,3.0,81,0.00,,,0.00,Wunderground v.1.15,2013-03-30 14:51:00,
2013-03-30 07:56:00,41.5,36.1,30.24,West,279,3.0,3.0,81,0.00,,,0.00,Wunderground v.1.15,2013-03-30 14:56:00,
2013-03-30 08:01:00,42.0,36.3,30.24,West,279,0.0,3.0,80,0.00,,,0.00,Wunderground v.1.15,2013-03-30 15:01:00,
2013-03-30 08:06:00,42.4,36.0,30.24,West,277,0.0,1.0,78,0.00,,,0.00,Wunderground v.1.15,2013-03-30 15:06:00,
2013-03-30 08:11:00,42.8,35.8,30.24,West,277,0.0,1.0,76,0.00,,,0.00,Wunderground v.1.15,2013-03-30 15:11:00,
2013-03-30 08:16:00,43.3,35.9,30.24,West,278,0.0,2.0,75,0.00,,,0.00,Wunderground v.1.15,2013-03-30 15:16:00,
2013-03-30 08:21:00,44.0,36.6,30.24,West,278,0.0,2.0,75,0.00,,,0.00,Wunderground v.1.15,2013-03-30 15:21:00,
2013-03-30 08:26:00,45.1,37.0,30.24,West,277,0.0,0.0,73,0.00,,,0.00,Wunderground v.1.15,2013-03-30 15:26:00,
2013-03-30 08:31:00,45.7,37.2,30.24,West,277,0.0,1.0,72,0.00,,,0.00,Wunderground v.1.15,2013-03-30 15:31:00,
2013-03-30 08:36:00,46.2,37.3,30.25,West,277,0.0,1.0,71,0.00,,,0.00,Wunderground v.1.15,2013-03-30 15:36:00,
2013-03-30 08:41:00,46.7,37.1,30.24,West,279,0.0,1.0,69,0.00,,,0.00,Wunderground v.1.15,2013-03-30 15:41:00,
2013-03-30 08:46:00,47.1,37.4,30.24,West,277,0.0,1.0,69,0.00,,,0.00,Wunderground v.1.15,2013-03-30 15:46:00,
2013-03-30 08:51:00,47.5,37.1,30.25,West,277,1.0,2.0,67,0.00,,,0.00,Wunderground v.1.15,2013-03-30 15:51:00,
2013-03-30 08:56:00,47.5,37.5,30.25,West,273,0.0,3.0,68,0.00,,,0.00,Wunderground v.1.15,2013-03-30 15:56:00,
2013-03-30 09:01:00,47.5,37.5,30.25,West,273,1.0,4.0,68,0.00,,,0.00,Wunderground v.1.15,2013-03-30 16:01:00,
2013-03-30 09:06:00,47.5,37.5,30.25,West,273,2.0,3.0,68,0.00,,,0.00,Wunderground v.1.15,2013-03-30 16:06:00,
2013-03-30 09:11:00,47.6,37.9,30.25,West,273,3.0,5.0,69,0.00,,,0.00,Wunderground v.1.15,2013-03-30 16:11:00,
2013-03-30 09:16:00,47.8,38.1,30.25,West,273,1.0,4.0,69,0.00,,,0.00,Wunderground v.1.15,2013-03-30 16:16:00,
2013-03-30 09:21:00,48.0,38.3,30.25,West,268,3.0,5.0,69,0.00,,,0.00,Wunderground v.1.15,2013-03-30 16:21:00,
2013-03-30 09:26:00,48.2,38.5,30.25,WSW,252,4.0,6.0,69,0.00,,,0.00,Wunderground v.1.15,2013-03-30 16:26:00,
2013-03-30 09:31:00,48.6,38.5,30.25,WSW,252,2.0,6.0,68,0.00,,,0.00,Wunderground v.1.15,2013-03-30 16:31:00,
2013-03-30 09:36:00,48.8,38.7,30.25,WSW,250,2.0,6.0,68,0.00,,,0.00,Wunderground v.1.15,2013-03-30 16:36:00,
2013-03-30 09:41:00,49.1,38.6,30.25,WSW,246,4.0,6.0,67,0.00,,,0.00,Wunderground v.1.15,2013-03-30 16:41:00,
2013-03-30 09:46:00,49.2,38.7,30.25,WSW,246,5.0,6.0,67,0.00,,,0.00,Wunderground v.1.15,2013-03-30 16:46:00,
2013-03-30 09:51:00,49.6,38.7,30.25,WSW,239,4.0,6.0,66,0.00,,,0.00,Wunderground v.1.15,2013-03-30 16:51:00,
2013-03-30 09:56:00,50.0,38.7,30.25,WSW,239,4.0,4.0,65,0.00,,,0.00,Wunderground v.1.15,2013-03-30 16:56:00,
2013-03-30 10:01:00,50.5,38.4,30.25,SW,236,2.0,5.0,63,0.00,,,0.00,Wunderground v.1.15,2013-03-30 17:01:00,
2013-03-30 10:06:00,51.2,38.6,30.25,WSW,237,3.0,5.0,62,0.00,,,0.00,Wunderground v.1.15,2013-03-30 17:06:00,
2013-03-30 10:11:00,52.0,39.0,30.25,WSW,237,1.0,5.0,61,0.00,,,0.00,Wunderground v.1.15,2013-03-30 17:11:00,
2013-03-30 10:16:00,52.8,38.9,30.25,WSW,237,4.0,4.0,59,0.00,,,0.00,Wunderground v.1.15,2013-03-30 17:16:00,
2013-03-30 10:21:00,53.2,39.7,30.25,SW,234,2.0,5.0,60,0.00,,,0.00,Wunderground v.1.15,2013-03-30 17:21:00,
2013-03-30 10:26:00,53.7,39.3,30.25,SW,234,3.0,5.0,58,0.00,,,0.00,Wunderground v.1.15,2013-03-30 17:26:00,
2013-03-30 10:31:00,54.2,39.3,30.25,SW,234,3.0,5.0,57,0.00,,,0.00,Wunderground v.1.15,2013-03-30 17:31:00,
2013-03-30 10:36:00,54.8,38.9,30.25,SW,234,3.0,5.0,55,0.00,,,0.00,Wunderground v.1.15,2013-03-30 17:36:00,
2013-03-30 10:41:00,55.3,38.9,30.25,SW,234,3.0,5.0,54,0.00,,,0.00,Wunderground v.1.15,2013-03-30 17:41:00,
2013-03-30 10:46:00,56.0,38.6,30.24,SW,234,2.0,3.0,52,0.00,,,0.00,Wunderground v.1.15,2013-03-30 17:46:00,
2013-03-30 10:51:00,55.9,38.5,30.24,WSW,243,1.0,4.0,52,0.00,,,0.00,Wunderground v.1.15,2013-03-30 17:51:00,
2013-03-30 10:56:00,56.5,38.6,30.24,WSW,242,3.0,4.0,51,0.00,,,0.00,Wunderground v.1.15,2013-03-30 17:56:00,
2013-03-30 11:01:00,56.6,39.2,30.24,WSW,242,3.0,4.0,52,0.00,,,0.00,Wunderground v.1.15,2013-03-30 18:01:00,
2013-03-30 11:06:00,57.2,39.2,30.24,WSW,242,0.0,3.0,51,0.00,,,0.00,Wunderground v.1.15,2013-03-30 18:06:00,
2013-03-30 11:11:00,57.7,39.2,30.24,WSW,237,3.0,4.0,50,0.00,,,0.00,Wunderground v.1.15,2013-03-30 18:11:00,
2013-03-30 11:16:00,57.8,39.3,30.24,WSW,237,0.0,4.0,50,0.00,,,0.00,Wunderground v.1.15,2013-03-30 18:16:00,
2013-03-30 11:21:00,58.3,39.2,30.24,WSW,237,3.0,4.0,49,0.00,,,0.00,Wunderground v.1.15,2013-03-30 18:21:00,
2013-03-30 11:26:00,58.4,38.8,30.24,WSW,237,0.0,5.0,48,0.00,,,0.00,Wunderground v.1.15,2013-03-30 18:26:00,
2013-03-30 11:31:00,58.8,39.1,30.24,WSW,242,1.0,5.0,48,0.00,,,0.00,Wunderground v.1.15,2013-03-30 18:31:00,
2013-03-30 11:36:00,59.2,39.0,30.23,WSW,237,0.0,7.0,47,0.00,,,0.00,Wunderground v.1.15,2013-03-30 18:36:00,
2013-03-30 11:41:00,59.7,38.3,30.23,WSW,237,3.0,7.0,45,0.00,,,0.00,Wunderground v.1.15,2013-03-30 18:41:00,
2013-03-30 11:46:00,60.1,38.7,30.23,WSW,237,2.0,3.0,45,0.00,,,0.00,Wunderground v.1.15,2013-03-30 18:46:00,
2013-03-30 11:51:00,60.4,38.4,30.23,WSW,237,1.0,5.0,44,0.00,,,0.00,Wunderground v.1.15,2013-03-30 18:51:00,
2013-03-30 11:56:00,60.8,38.1,30.23,WSW,237,4.0,4.0,43,0.00,,,0.00,Wunderground v.1.15,2013-03-30 18:56:00,
2013-03-30 12:01:00,61.0,37.7,30.23,WSW,237,0.0,4.0,42,0.00,,,0.00,Wunderground v.1.15,2013-03-30 19:01:00,
2013-03-30 12:06:00,61.6,37.7,30.23,WSW,237,2.0,5.0,41,0.00,,,0.00,Wunderground v.1.15,2013-03-30 19:06:00,
2013-03-30 12:11:00,62.0,37.4,30.23,WSW,237,5.0,7.0,40,0.00,,,0.00,Wunderground v.1.15,2013-03-30 19:11:00,
2013-03-30 12:16:00,61.6,36.4,30.23,WSW,237,3.0,5.0,39,0.00,,,0.00,Wunderground v.1.15,2013-03-30 19:16:00,
2013-03-30 12:21:00,61.6,36.4,30.23,WSW,237,0.0,5.0,39,0.00,,,0.00,Wunderground v.1.15,2013-03-30 19:21:00,
2013-03-30 12:26:00,62.1,36.8,30.22,WSW,237,3.0,6.0,39,0.00,,,0.00,Wunderground v.1.15,2013-03-30 19:26:00,
2013-03-30 12:31:00,62.9,35.5,30.22,SW,230,3.0,8.0,36,0.00,,,0.00,Wunderground v.1.15,2013-03-30 19:31:00,
2013-03-30 12:36:00,62.9,36.9,30.22,SW,230,1.0,5.0,38,0.00,,,0.00,Wunderground v.1.15,2013-03-30 19:36:00,
2013-03-30 12:41:00,63.3,36.6,30.22,SW,230,0.0,5.0,37,0.00,,,0.00,Wunderground v.1.15,2013-03-30 19:41:00,
2013-03-30 12:46:00,63.8,37.0,30.22,SW,234,1.0,4.0,37,0.00,,,0.00,Wunderground v.1.15,2013-03-30 19:46:00,
2013-03-30 12:51:00,63.4,36.0,30.22,SW,231,3.0,6.0,36,0.00,,,0.00,Wunderground v.1.15,2013-03-30 19:51:00,
2013-03-30 12:56:00,63.2,36.5,30.21,SW,231,0.0,3.0,37,0.00,,,0.00,Wunderground v.1.15,2013-03-30 19:56:00,
2013-03-30 13:01:00,64.1,36.6,30.21,SW,231,2.0,4.0,36,0.00,,,0.00,Wunderground v.1.15,2013-03-30 20:01:00,
2013-03-30 13:06:00,64.3,36.0,30.21,SW,228,4.0,7.0,35,0.00,,,0.00,Wunderground v.1.15,2013-03-30 20:06:00,
2013-03-30 13:11:00,64.3,35.3,30.21,SW,230,0.0,7.0,34,0.00,,,0.00,Wunderground v.1.15,2013-03-30 20:11:00,
2013-03-30 13:16:00,64.5,36.2,30.21,SW,227,6.0,6.0,35,0.00,,,0.00,Wunderground v.1.15,2013-03-30 20:16:00,
2013-03-30 13:21:00,64.4,36.8,30.21,SW,225,0.0,6.0,36,0.00,,,0.00,Wunderground v.1.15,2013-03-30 20:21:00,
2013-03-30 13:26:00,64.0,36.5,30.21,SE,133,7.0,10.0,36,0.00,,,0.00,Wunderground v.1.15,2013-03-30 20:26:00,
2013-03-30 13:31:00,63.7,36.2,30.20,South,176,9.0,10.0,36,0.00,,,0.00,Wunderground v.1.15,2013-03-30 20:31:00,
2013-03-30 13:36:00,64.1,36.6,30.20,South,174,6.0,9.0,36,0.00,,,0.00,Wunderground v.1.15,2013-03-30 20:36:00,
2013-03-30 13:41:00,64.7,36.4,30.20,SSE,150,5.0,10.0,35,0.00,,,0.00,Wunderground v.1.15,2013-03-30 20:41:00,
2013-03-30 13:46:00,64.5,36.2,30.20,South,173,4.0,8.0,35,0.00,,,0.00,Wunderground v.1.15,2013-03-30 20:46:00,
2013-03-30 13:51:00,64.3,36.0,30.20,SSE,165,1.0,8.0,35,0.00,,,0.00,Wunderground v.1.15,2013-03-30 20:51:00,
2013-03-30 13:56:00,64.8,37.2,30.19,South,185,4.0,8.0,36,0.00,,,0.00,Wunderground v.1.15,2013-03-30 20:56:00,
2013-03-30 14:01:00,65.3,36.9,30.19,South,184,4.0,8.0,35,0.00,,,0.00,Wunderground v.1.15,2013-03-30 21:01:00,
2013-03-30 14:06:00,65.2,36.8,30.19,South,184,0.0,5.0,35,0.00,,,0.00,Wunderground v.1.15,2013-03-30 21:06:00,
2013-03-30 14:11:00,66.0,36.8,30.19,South,184,3.0,6.0,34,0.00,,,0.00,Wunderground v.1.15,2013-03-30 21:11:00,
2013-03-30 14:12:00,66.1,37.6,30.19,South,184,5.0,6.0,35,0.00,,,0.00,Wunderground v.1.15,2013-03-30 21:12:00,
2013-03-30 14:17:00,65.9,37.5,30.18,SSW,196,5.0,12.0,35,0.00,,,0.00,Wunderground v.1.15,2013-03-30 21:17:00,
2013-03-30 14:21:00,65.6,36.5,30.18,SSE,166,5.0,12.0,34,0.00,,,0.00,Wunderground v.1.15,2013-03-30 21:21:00,
2013-03-30 14:22:00,65.6,36.5,30.18,SSE,167,4.0,12.0,34,0.00,,,0.00,Wunderground v.1.15,2013-03-30 21:22:00,
2013-03-30 14:26:00,65.4,36.3,30.18,South,179,9.0,12.0,34,0.00,,,0.00,Wunderground v.1.15,2013-03-30 21:26:00,
2013-03-30 14:31:00,65.2,36.1,30.18,SE,142,1.0,12.0,34,0.00,,,0.00,Wunderground v.1.15,2013-03-30 21:31:00,
2013-03-30 14:36:00,65.3,36.2,30.18,SSE,157,4.0,8.0,34,0.00,,,0.00,Wunderground v.1.15,2013-03-30 21:36:00,
2013-03-30 14:41:00,65.1,35.3,30.17,South,182,3.0,14.0,33,0.00,,,0.00,Wunderground v.1.15,2013-03-30 21:41:00,
2013-03-30 14:46:00,65.6,36.5,30.17,South,184,3.0,6.0,34,0.00,,,0.00,Wunderground v.1.15,2013-03-30 21:46:00,
2013-03-30 14:51:00,65.8,37.4,30.17,South,185,1.0,6.0,35,0.00,,,0.00,Wunderground v.1.15,2013-03-30 21:51:00,
2013-03-30 14:56:00,66.2,37.0,30.17,SSW,207,4.0,7.0,34,0.00,,,0.00,Wunderground v.1.15,2013-03-30 21:56:00,
2013-03-30 15:01:00,65.8,35.9,30.17,WSW,248,0.0,10.0,33,0.00,,,0.00,Wunderground v.1.15,2013-03-30 22:01:00,
2013-03-30 15:06:00,65.9,35.2,30.17,South,173,10.0,10.0,32,0.00,,,0.00,Wunderground v.1.15,2013-03-30 22:06:00,
2013-03-30 15:11:00,66.0,36.1,30.17,SSW,205,8.0,11.0,33,0.00,,,0.00,Wunderground v.1.15,2013-03-30 22:11:00,
2013-03-30 15:16:00,66.1,35.4,30.16,SSE,153,7.0,8.0,32,0.00,,,0.00,Wunderground v.1.15,2013-03-30 22:16:00,
2013-03-30 15:21:00,66.2,36.2,30.16,South,188,2.0,11.0,33,0.00,,,0.00,Wunderground v.1.15,2013-03-30 22:21:00,
2013-03-30 15:26:00,66.3,36.3,30.16,South,181,4.0,7.0,33,0.00,,,0.00,Wunderground v.1.15,2013-03-30 22:26:00,
2013-03-30 15:31:00,66.4,36.4,30.16,South,181,3.0,7.0,33,0.00,,,0.00,Wunderground v.1.15,2013-03-30 22:31:00,
2013-03-30 15:36:00,66.6,36.6,30.16,SW,233,5.0,9.0,33,0.00,,,0.00,Wunderground v.1.15,2013-03-30 22:36:00,
2013-03-30 15:41:00,65.9,36.7,30.15,WSW,238,3.0,9.0,34,0.00,,,0.00,Wunderground v.1.15,2013-03-30 22:41:00,
2013-03-30 15:46:00,66.2,37.0,30.15,SW,218,4.0,8.0,34,0.00,,,0.00,Wunderground v.1.15,2013-03-30 22:46:00,
2013-03-30 15:51:00,65.8,35.9,30.15,SE,126,6.0,11.0,33,0.00,,,0.00,Wunderground v.1.15,2013-03-30 22:51:00,
2013-03-30 15:56:00,65.6,36.5,30.14,SE,128,5.0,10.0,34,0.00,,,0.00,Wunderground v.1.15,2013-03-30 22:56:00,
2013-03-30 16:01:00,65.3,36.2,30.14,SE,128,4.0,10.0,34,0.00,,,0.00,Wunderground v.1.15,2013-03-30 23:01:00,
2013-03-30 16:06:00,65.1,36.0,30.14,ESE,106,5.0,9.0,34,0.00,,,0.00,Wunderground v.1.15,2013-03-30 23:06:00,
2013-03-30 16:11:00,65.3,36.2,30.14,SSE,164,7.0,9.0,34,0.00,,,0.00,Wunderground v.1.15,2013-03-30 23:11:00,
2013-03-30 16:16:00,65.8,35.9,30.13,SE,140,9.0,10.0,33,0.00,,,0.00,Wunderground v.1.15,2013-03-30 23:16:00,
2013-03-30 16:21:00,65.5,35.6,30.13,SE,138,4.0,12.0,33,0.00,,,0.00,Wunderground v.1.15,2013-03-30 23:21:00,
2013-03-30 16:26:00,65.4,36.3,30.13,SE,134,5.0,6.0,34,0.00,,,0.00,Wunderground v.1.15,2013-03-30 23:26:00,
2013-03-30 16:31:00,65.9,36.7,30.13,SE,142,4.0,7.0,34,0.00,,,0.00,Wunderground v.1.15,2013-03-30 23:31:00,
2013-03-30 16:36:00,66.7,35.9,30.13,SSE,163,6.0,7.0,32,0.00,,,0.00,Wunderground v.1.15,2013-03-30 23:36:00,
2013-03-30 16:41:00,66.7,35.1,30.13,SW,219,4.0,10.0,31,0.00,,,0.00,Wunderground v.1.15,2013-03-30 23:41:00,
2013-03-30 16:46:00,66.5,34.9,30.13,SW,229,1.0,7.0,31,0.00,,,0.00,Wunderground v.1.15,2013-03-30 23:46:00,
2013-03-30 16:51:00,66.8,35.2,30.12,SW,229,1.0,7.0,31,0.00,,,0.00,Wunderground v.1.15,2013-03-30 23:51:00,
2013-03-30 16:56:00,67.6,36.7,30.12,SW,233,2.0,4.0,32,0.00,,,0.00,Wunderground v.1.15,2013-03-30 23:56:00,
2013-03-30 17:01:00,67.2,36.3,30.12,SW,220,3.0,7.0,32,0.00,,,0.00,Wunderground v.1.15,2013-03-31 00:01:00,
2013-03-30 17:06:00,66.4,35.6,30.12,SW,220,3.0,6.0,32,0.00,,,0.00,Wunderground v.1.15,2013-03-31 00:06:00,
2013-03-30 17:11:00,66.3,36.3,30.12,SSW,192,3.0,8.0,33,0.00,,,0.00,Wunderground v.1.15,2013-03-31 00:11:00,
2013-03-30 17:16:00,66.6,36.6,30.11,South,190,6.0,6.0,33,0.00,,,0.00,Wunderground v.1.15,2013-03-31 00:16:00,
2013-03-30 17:21:00,66.2,36.2,30.11,SSE,157,5.0,10.0,33,0.00,,,0.00,Wunderground v.1.15,2013-03-31 00:21:00,
2013-03-30 17:26:00,65.9,36.0,30.11,SSE,152,8.0,10.0,33,0.00,,,0.00,Wunderground v.1.15,2013-03-31 00:26:00,
2013-03-30 17:31:00,65.6,35.7,30.11,SSE,152,0.0,10.0,33,0.00,,,0.00,Wunderground v.1.15,2013-03-31 00:31:00,
2013-03-30 17:36:00,66.0,36.1,30.11,SSE,167,2.0,4.0,33,0.00,,,0.00,Wunderground v.1.15,2013-03-31 00:36:00,
2013-03-30 17:41:00,66.0,36.1,30.11,SSE,167,0.0,5.0,33,0.00,,,0.00,Wunderground v.1.15,2013-03-31 00:41:00,
2013-03-30 17:46:00,66.4,35.6,30.11,SSE,167,0.0,6.0,32,0.00,,,0.00,Wunderground v.1.15,2013-03-31 00:46:00,
2013-03-30 17:51:00,66.5,35.7,30.10,SSE,165,4.0,9.0,32,0.00,,,0.00,Wunderground v.1.15,2013-03-31 00:51:00,
2013-03-30 17:56:00,66.4,35.6,30.10,SSE,168,6.0,8.0,32,0.00,,,0.00,Wunderground v.1.15,2013-03-31 00:56:00,
2013-03-30 18:01:00,66.1,36.1,30.10,SSE,168,6.0,8.0,33,0.00,,,0.00,Wunderground v.1.15,2013-03-31 01:01:00,
2013-03-30 18:06:00,66.0,36.1,30.10,SSE,168,2.0,6.0,33,0.00,,,0.00,Wunderground v.1.15,2013-03-31 01:06:00,
2013-03-30 18:11:00,65.7,35.8,30.10,SSE,168,0.0,6.0,33,0.00,,,0.00,Wunderground v.1.15,2013-03-31 01:11:00,
2013-03-30 18:16:00,65.8,35.9,30.10,South,170,4.0,4.0,33,0.00,,,0.00,Wunderground v.1.15,2013-03-31 01:16:00,
2013-03-30 18:21:00,65.6,35.7,30.10,South,171,4.0,4.0,33,0.00,,,0.00,Wunderground v.1.15,2013-03-31 01:21:00,
2013-03-30 18:26:00,65.4,35.5,30.09,SSE,166,4.0,6.0,33,0.00,,,0.00,Wunderground v.1.15,2013-03-31 01:26:00,
2013-03-30 18:31:00,65.2,36.1,30.09,South,173,5.0,7.0,34,0.00,,,0.00,Wunderground v.1.15,2013-03-31 01:31:00,
2013-03-30 18:36:00,65.0,35.9,30.09,South,173,6.0,7.0,34,0.00,,,0.00,Wunderground v.1.15,2013-03-31 01:36:00,
2013-03-30 18:41:00,65.0,35.2,30.09,South,173,5.0,7.0,33,0.00,,,0.00,Wunderground v.1.15,2013-03-31 01:41:00,
2013-03-30 18:46:00,65.0,35.2,30.09,South,173,4.0,5.0,33,0.00,,,0.00,Wunderground v.1.15,2013-03-31 01:46:00,
2013-03-30 18:51:00,64.8,35.0,30.09,South,173,4.0,5.0,33,0.00,,,0.00,Wunderground v.1.15,2013-03-31 01:51:00,
2013-03-30 18:56:00,64.5,35.5,30.09,South,173,4.0,5.0,34,0.00,,,0.00,Wunderground v.1.15,2013-03-31 01:56:00,
2013-03-30 19:01:00,64.3,35.3,30.09,South,173,1.0,5.0,34,0.00,,,0.00,Wunderground v.1.15,2013-03-31 02:01:00,
2013-03-30 19:06:00,64.1,35.9,30.09,South,173,2.0,4.0,35,0.00,,,0.00,Wunderground v.1.15,2013-03-31 02:06:00,
2013-03-30 19:11:00,63.8,35.6,30.09,South,173,1.0,4.0,35,0.00,,,0.00,Wunderground v.1.15,2013-03-31 02:11:00,
2013-03-30 19:16:00,63.4,36.0,30.09,South,173,1.0,4.0,36,0.00,,,0.00,Wunderground v.1.15,2013-03-31 02:16:00,
2013-03-30 19:21:00,62.9,36.2,30.09,South,173,1.0,4.0,37,0.00,,,0.00,Wunderground v.1.15,2013-03-31 02:21:00,
2013-03-30 19:26:00,62.1,35.5,30.09,South,173,4.0,4.0,37,0.00,,,0.00,Wunderground v.1.15,2013-03-31 02:26:00,
2013-03-30 19:31:00,61.6,35.7,30.09,South,173,2.0,4.0,38,0.00,,,0.00,Wunderground v.1.15,2013-03-31 02:31:00,
2013-03-30 19:36:00,60.9,36.4,30.08,South,171,4.0,6.0,40,0.00,,,0.00,Wunderground v.1.15,2013-03-31 02:36:00,
2013-03-30 19:41:00,59.2,36.7,30.08,SSE,163,6.0,6.0,43,0.00,,,0.00,Wunderground v.1.15,2013-03-31 02:41:00,
2013-03-30 19:46:00,58.2,36.9,30.08,SE,130,5.0,8.0,45,0.00,,,0.00,Wunderground v.1.15,2013-03-31 02:46:00,
2013-03-30 19:51:00,57.2,36.6,30.08,SE,130,6.0,8.0,46,0.00,,,0.00,Wunderground v.1.15,2013-03-31 02:51:00,
2013-03-30 19:56:00,56.9,36.3,30.08,SE,128,5.0,6.0,46,0.00,,,0.00,Wunderground v.1.15,2013-03-31 02:56:00,
2013-03-30 20:01:00,56.2,36.2,30.09,SE,126,6.0,6.0,47,0.00,,,0.00,Wunderground v.1.15,2013-03-31 03:01:00,
2013-03-30 20:06:00,55.5,36.1,30.08,ESE,117,6.0,7.0,48,0.00,,,0.00,Wunderground v.1.15,2013-03-31 03:06:00,
2013-03-30 20:11:00,54.9,36.1,30.08,ESE,115,4.0,7.0,49,0.00,,,0.00,Wunderground v.1.15,2013-03-31 03:11:00,
2013-03-30 20:16:00,54.4,36.1,30.09,ESE,115,4.0,5.0,50,0.00,,,0.00,Wunderground v.1.15,2013-03-31 03:16:00,
2013-03-30 20:21:00,54.0,36.3,30.09,ESE,115,5.0,6.0,51,0.00,,,0.00,Wunderground v.1.15,2013-03-31 03:21:00,
2013-03-30 20:26:00,53.8,36.1,30.09,ESE,113,5.0,6.0,51,0.00,,,0.00,Wunderground v.1.15,2013-03-31 03:26:00,
2013-03-30 20:31:00,53.9,36.2,30.08,ESE,107,5.0,7.0,51,0.00,,,0.00,Wunderground v.1.15,2013-03-31 03:31:00,
2013-03-30 20:36:00,53.8,36.6,30.09,ESE,102,6.0,7.0,52,0.00,,,0.00,Wunderground v.1.15,2013-03-31 03:36:00,
2013-03-30 20:41:00,53.9,36.2,30.09,East,99,6.0,7.0,51,0.00,,,0.00,Wunderground v.1.15,2013-03-31 03:41:00,
2013-03-30 20:46:00,53.5,36.3,30.09,East,99,5.0,6.0,52,0.00,,,0.00,Wunderground v.1.15,2013-03-31 03:46:00,
2013-03-30 20:51:00,53.1,36.4,30.08,East,98,5.0,6.0,53,0.00,,,0.00,Wunderground v.1.15,2013-03-31 03:51:00,
2013-03-30 20:56:00,52.7,36.0,30.08,East,98,5.0,6.0,53,0.00,,,0.00,Wunderground v.1.15,2013-03-31 03:56:00,
2013-03-30 21:00:00,52.5,36.3,30.09,East,98,4.0,6.0,54,0.00,,,0.00,Wunderground v.1.15,2013-03-31 04:00:00,
2013-03-30 21:01:00,52.4,36.2,30.09,East,98,5.0,6.0,54,0.00,,,0.00,Wunderground v.1.15,2013-03-31 04:01:00,
2013-03-30 21:06:00,52.3,36.6,30.09,East,98,5.0,6.0,55,0.00,,,0.00,Wunderground v.1.15,2013-03-31 04:06:00,
2013-03-30 21:11:00,52.3,36.6,30.08,East,97,4.0,6.0,55,0.00,,,0.00,Wunderground v.1.15,2013-03-31 04:11:00,
2013-03-30 21:16:00,52.1,36.9,30.08,East,96,5.0,6.0,56,0.00,,,0.00,Wunderground v.1.15,2013-03-31 04:16:00,
2013-03-30 21:21:00,51.8,37.5,30.08,East,94,4.0,6.0,58,0.00,,,0.00,Wunderground v.1.15,2013-03-31 04:21:00,
2013-03-30 21:26:00,51.5,36.8,30.08,East,90,5.0,6.0,57,0.00,,,0.00,Wunderground v.1.15,2013-03-31 04:26:00,
2013-03-30 21:31:00,51.4,36.7,30.08,ENE,74,4.0,8.0,57,0.00,,,0.00,Wunderground v.1.15,2013-03-31 04:31:00,
2013-03-30 21:36:00,51.0,36.7,30.08,ENE,74,4.0,5.0,58,0.00,,,0.00,Wunderground v.1.15,2013-03-31 04:36:00,
2013-03-30 21:41:00,50.7,36.9,30.08,ENE,74,3.0,5.0,59,0.00,,,0.00,Wunderground v.1.15,2013-03-31 04:41:00,
2013-03-30 21:46:00,50.5,36.7,30.08,ENE,74,4.0,5.0,59,0.00,,,0.00,Wunderground v.1.15,2013-03-31 04:46:00,
2013-03-30 21:51:00,50.3,36.9,30.08,ENE,74,4.0,5.0,60,0.00,,,0.00,Wunderground v.1.15,2013-03-31 04:51:00,
2013-03-30 21:56:00,50.0,36.7,30.08,ENE,74,2.0,5.0,60,0.00,,,0.00,Wunderground v.1.15,2013-03-31 04:56:00,
2013-03-30 22:01:00,49.9,37.0,30.08,ENE,74,3.0,5.0,61,0.00,,,0.00,Wunderground v.1.15,2013-03-31 05:01:00,
2013-03-30 22:06:00,50.0,36.7,30.08,ENE,74,4.0,5.0,60,0.00,,,0.00,Wunderground v.1.15,2013-03-31 05:06:00,
2013-03-30 22:11:00,50.0,36.7,30.08,ENE,74,3.0,5.0,60,0.00,,,0.00,Wunderground v.1.15,2013-03-31 05:11:00,
2013-03-30 22:16:00,49.9,37.0,30.08,ENE,73,4.0,5.0,61,0.00,,,0.00,Wunderground v.1.15,2013-03-31 05:16:00,
2013-03-30 22:21:00,49.8,36.9,30.08,ENE,73,4.0,5.0,61,0.00,,,0.00,Wunderground v.1.15,2013-03-31 05:21:00,
2013-03-30 22:26:00,49.7,36.8,30.08,ENE,69,6.0,6.0,61,0.00,,,0.00,Wunderground v.1.15,2013-03-31 05:26:00,
2013-03-30 22:31:00,49.8,36.9,30.08,ENE,60,5.0,6.0,61,0.00,,,0.00,Wunderground v.1.15,2013-03-31 05:31:00,
2013-03-30 22:36:00,49.9,37.0,30.08,ENE,59,4.0,6.0,61,0.00,,,0.00,Wunderground v.1.15,2013-03-31 05:36:00,
2013-03-30 22:41:00,49.6,37.1,30.08,ENE,59,4.0,6.0,62,0.00,,,0.00,Wunderground v.1.15,2013-03-31 05:41:00,
2013-03-30 22:46:00,49.4,36.9,30.08,ENE,59,3.0,5.0,62,0.00,,,0.00,Wunderground v.1.15,2013-03-31 05:46:00,
2013-03-30 22:51:00,49.2,37.1,30.08,ENE,59,4.0,5.0,63,0.00,,,0.00,Wunderground v.1.15,2013-03-31 05:51:00,
2013-03-30 22:56:00,49.1,37.0,30.08,ENE,59,4.0,5.0,63,0.00,,,0.00,Wunderground v.1.15,2013-03-31 05:56:00,
2013-03-30 23:01:00,48.9,36.9,30.08,ENE,59,3.0,5.0,63,0.00,,,0.00,Wunderground v.1.15,2013-03-31 06:01:00,
2013-03-30 23:06:00,49.0,37.3,30.08,ENE,59,1.0,3.0,64,0.00,,,0.00,Wunderground v.1.15,2013-03-31 06:06:00,
2013-03-30 23:11:00,48.7,37.1,30.08,ENE,59,3.0,4.0,64,0.00,,,0.00,Wunderground v.1.15,2013-03-31 06:11:00,
2013-03-30 23:16:00,48.3,37.1,30.08,ENE,59,3.0,4.0,65,0.00,,,0.00,Wunderground v.1.15,2013-03-31 06:16:00,
2013-03-30 23:21:00,48.0,37.2,30.08,ENE,59,3.0,4.0,66,0.00,,,0.00,Wunderground v.1.15,2013-03-31 06:21:00,
2013-03-30 23:26:00,48.4,37.2,30.08,ENE,59,4.0,4.0,65,0.00,,,0.00,Wunderground v.1.15,2013-03-31 06:26:00,
2013-03-30 23:31:00,48.8,37.2,30.08,ENE,59,1.0,4.0,64,0.00,,,0.00,Wunderground v.1.15,2013-03-31 06:31:00,
2013-03-30 23:36:00,48.7,36.7,30.08,ENE,59,1.0,2.0,63,0.00,,,0.00,Wunderground v.1.15,2013-03-31 06:36:00,
2013-03-30 23:41:00,49.0,36.5,30.08,ENE,59,0.0,2.0,62,0.00,,,0.00,Wunderground v.1.15,2013-03-31 06:41:00,
2013-03-30 23:46:00,49.0,36.9,30.08,ENE,59,2.0,2.0,63,0.00,,,0.00,Wunderground v.1.15,2013-03-31 06:46:00,
2013-03-30 23:51:00,49.0,36.9,30.08,ENE,59,2.0,3.0,63,0.00,,,0.00,Wunderground v.1.15,2013-03-31 06:51:00,
2013-03-30 23:56:00,49.4,36.9,30.07,ENE,59,2.0,3.0,62,0.00,,,0.00,Wunderground v.1.15,2013-03-31 06:56:00,